Showing default

HOTSAT-1, 56954

Orbit data source: Space-Track

HOTSAT-1, 56954 is a payload satellite owned by Satellite Vu (UK) in SSO that was launched on Mon, 12 Jun 2023 UTC via an FALCON 9 launch vehicle from the Air Force Western Test Range (AFWTR). Payload-class satellites include a variety of spacecraft equipped with specific instruments for various scientific and technological missions. These include communications satellites like Starlink; space stations such as the ISS; scientific satellites like the Hubble; Earth observation satellites from companies like Planet Labs, Umbra, and HawkEye 360; GPS; miniature CubeSats for education and research; and military/defense satellites.

Loading next visibility...
Identifier
56954, 2023-084Y
Orbit
SSO
Country
Flag of UKUK
Related business
Manufacturer
SSTL
Mission
Non-operational Commercial Imaging
Bus & Motor
DARKCARB, H2O AOCS
Mass
130 kg wet, 130 kg dry
Launch date (UTC)
2023-06-12 (3 years ago)
Launch vehicle
FALCON 9
Launch site
Air Force Western Test Range (AFWTR)
Object type
Payload
Rocket body
Debris
Shape & HBR
Box + Cone + 1 Pan, 0.5 m
Radar Cross Section
0.625 m², Medium (>0.1 m² and < 1m²)

Expand to show TLE details & history
Last TLE update: 7 hours ago

TLE from 7 hours ago
0 HOTSAT-1
1 56954U 23084Y   26119.59643674  .00004669  00000-0  20441-3 0  9998
2 56954  97.6152 253.2879 0002664 104.0316 256.1216 15.22539747159700
Epoch: 2026-04-29T14:18Z
TLE epoch observation values (Epoch: 2026-04-29T14:18:52.134Z)
Latitude
-0.00003°
Longitude
-178.98445°
Altitude
501.711 km
Speed
7.613 km/s
True Right ascension
16h 53m 09s
True Declination
0° 00' 00"
Sunlit
Object was in full shadow at epoch
Visualization orbit readout
Latitude
Unknown
Longitude
Unknown
Altitude
Unknown
Speed
Unknown
Apparent Right ascension
Unknown
Apparent Declination
Unknown
Sunlit
N/A
Visualization observer readout
Local Sidereal Time
04:41:03
Azimuth
Unknown
Elevation
Unknown
Doppler factor
Unknown
Orbital elements
Apogee altitude
496.986 km
Perigee altitude
493.324 km
Semi-major axis
6,873.292 km
Eccentricity
0.00027
Inclination
97.6152°
RAAN
253.2879°
Arg. of periapsis
104.0316°
True anomaly
256.09197°
Mean anomaly
256.1216°
Eccentric anomaly
256.10678°
Mean motion
3.80887 °/min
Orbital period
94.52 mins
BSTAR
0.00020441
Loading maneuver chart data...
Computing Atmospheric mass density...
Loading historical data...
Loading historical data...
Loading historical data...
Loading historical data...
Loading historical data...
Loading historical data...
Loading historical data...

Documentation

Showing up to 5 results
|